This demonstration page uses our WeatherBlox Daily Observations layout. Learn more.

Left ArrowRight Arrow

Hourly Observations for April 3, 2022

Temp ( °F °C ) Dew Point ( °F °C ) Humidity (%) Winds ( mph kmh ) Pressure ( in mb ) Visibility ( mi km ) Precip ( " mm )
12:53 am 00:53 Clear 60 15.6 22 -5.6 23 23 N 6 9 29.97 1015 10 16 0.00 0.00
1:53 am 01:53 Clear 51 10.6 31 -0.6 46 46 Calm 29.98 1015 10 16 0.00 0.00
2:53 am 02:53 Clear 47 8.3 32 0 56 56 Calm 29.97 1015 10 16 0.00 0.00
3:53 am 03:53 Clear 46 7.8 31 -0.6 56 56 Calm 29.97 1015 10 16 0.00 0.00
4:53 am 04:53 Clear 43 6.1 30 -1.1 60 60 W 3 6 29.96 1015 10 16 0.00 0.00
5:53 am 05:53 Clear 42 5.6 31 -0.6 65 65 Calm 29.96 1015 10 16 0.00 0.00
6:53 am 06:53 Sunny 41 5 31 -0.6 67 67 NE 3 6 29.95 1014 10 16 0.00 0.00
7:53 am 07:53 Sunny 48 8.9 34 1.1 58 58 NE 3 6 29.96 1014 10 16 0.00 0.00
8:53 am 08:53 Sunny 57 13.9 35 1.7 44 44 Calm 29.96 1015 10 16 0.00 0.00
9:53 am 09:53 Sunny 64 17.8 33 0.6 32 32 Calm 29.96 1014 10 16 0.00 0.00
10:53 am 10:53 Sunny 68 20 27 -2.8 21 21 NNW 7 11 29.95 1014 10 16 0.00 0.00
11:53 am 11:53 Sunny 69 20.6 28 -2.2 22 22 Calm 29.94 1014 10 16 0.00 0.00
12:53 pm 12:53 Sunny 69 20.6 27 -2.8 21 21 NNW 6 9 29.92 1013 10 16 0.00 0.00
1:53 pm 13:53 Sunny 72 22.2 24 -4.4 17 17 N 5 7 29.90 1013 10 16 0.00 0.00
2:53 pm 14:53 Mostly Sunny 73 22.8 23 -5 15 15 WNW 5 7 29.89 1012 10 16 0.00 0.00
3:53 pm 15:53 Mostly Cloudy 75 23.9 22 -5.6 14 14 VRB 3 6 29.86 1011 10 16 0.00 0.00
4:53 pm 16:53 Mostly Sunny 77 25 22 -5.6 13 13 Calm 29.84 1010 10 16 0.00 0.00
5:53 pm 17:53 Sunny 76 24.4 25 -3.9 15 15 WSW 8 13 29.83 1010 10 16 0.00 0.00
6:53 pm 18:53 Sunny 73 22.8 27 -2.8 18 18 NW 6 9 29.83 1010 10 16 0.00 0.00
7:53 pm 19:53 Clear 67 19.4 31 -0.6 26 26 W 5 7 29.84 1011 10 16 0.00 0.00
8:53 pm 20:53 Clear 65 18.3 31 -0.6 28 28 W 5 7 29.86 1011 10 16 0.00 0.00
9:53 pm 21:53 Clear 63 17.2 32 0 31 31 Calm 29.87 1012 10 16 0.00 0.00

Powered by AerisWeather